カタログに戻る

SL-14 DEB

運用中PO
NORAD 45314·DEBRIS·🇷🇺 Russia

打ち上げ Aug 15, 1991 から Plesetsk Cosmodrome

Loading…

次のパス (今後24時間)

TLE

最新Source: Space-Track

元期: Sep 13, 2026, 19:29 UTC

1 45314U 91056BC  26256.81232793 -.00000623  00000-0 -18321-2 0  9994
2 45314  82.5323  96.5173 0050179  67.3959 293.2456 13.09566070312884

AllMySatでSL-14 DEBをリアルタイム追跡

Download on the App Store